Location: Clarks Summit,Pa.
(41.5000°N, 75.6000°W)
Time: 06:03:29
(UTC-05:00)

N. Korean satellite - Visible Passes

Search period start: 02 December 2021 00:00
Search period end: 12 December 2021 00:00
Orbit: 447 x 495 km, 97.3° (Epoch: 01 December)

Date Brightness Start Highest point End Pass type
(mag) Time Alt. Az. Time Alt. Az. Time Alt. Az.
02 Dec 6.3 05:32:01 10° N 05:35:22 61° WNW 05:38:41 10° SSW visible
02 Dec 10.1 17:41:36 10° WSW 17:42:39 11° W 17:43:42 10° WNW visible
03 Dec 7.3 05:03:34 10° NNE 05:06:53 49° E 05:10:09 10° S visible
03 Dec 9.2 17:11:01 10° SSW 17:13:58 24° W 17:16:54 10° NW visible
04 Dec 9.0 04:35:39 10° NE 04:38:15 20° E 04:40:51 10° SE visible
04 Dec 7.7 06:08:47 10° NNW 06:11:21 20° WNW 06:13:53 10° WSW visible
05 Dec 6.6 05:39:42 10° N 05:42:58 47° WNW 05:46:13 10° SSW visible
06 Dec 6.7 05:11:07 10° NNE 05:14:28 65° E 05:17:50 10° S visible
06 Dec 9.6 17:18:58 10° SW 17:21:36 20° W 17:24:12 10° NW visible
07 Dec 8.6 04:42:59 10° NE 04:45:51 25° E 04:48:44 10° SSE visible
07 Dec 7.9 06:16:39 10° NNW 06:18:51 16° WNW 06:21:03 10° WSW visible
08 Dec 9.9 04:16:01 10° ENE 04:17:07 11° E 04:18:13 10° ESE visible
08 Dec 6.9 05:47:19 10° N 05:50:29 36° WNW 05:53:37 10° SW visible
09 Dec 6.3 05:18:35 10° NNE 05:21:59 85° ESE 05:25:22 10° S visible
09 Dec 9.7 17:26:57 10° SW 17:29:08 16° W 17:31:19 10° NW visible
10 Dec 8.2 04:51:58 23° NE 04:53:22 32° E 04:56:26 10° SSE visible
10 Dec 8.2 06:26:07 14° WNW 06:26:15 14° WNW 06:28:00 10° W visible
10 Dec 8.4 16:57:12 10° SSW 17:00:25 35° W 17:03:38 10° NNW visible
11 Dec 9.6 04:23:49 13° ENE 04:24:37 14° E 04:26:30 10° SE visible
11 Dec 7.2 05:57:57 29° WNW 05:57:57 29° WNW 06:00:52 10° SW visible
